Souda, Greece

3:22 AM EEST on July 21, 2018 (GMT +0300)
Souda Air Base

Weather History for LGSA - July, 2018

Change the Weather History Date:

Friday, July 13, 2018

  Actual Average Record
Temperature  
Mean Temperature 82 °F -  
Max Temperature 91 °F 87 °F 100 °F (2012)
Min Temperature 72 °F 69 °F 68 °F (1996)
Cooling Degree Days 16    
Growing Degree Days 32 (Base 50)    
Moisture  
Dew Point 69 °F    
Average Humidity 64    
Maximum Humidity 89    
Minimum Humidity 41    
Precipitation  
Precipitation 0.00 in 0.00 in - ()
Sea Level Pressure  
Sea Level Pressure 29.87 in    
Wind  
Wind Speed 6 mph ()    
Max Wind Speed 14 mph    
Max Gust Speed -    
Visibility 6.1 miles    
Events      
Averages and records for this station are not official NWS values.
T = Trace of Precipitation, MM = Missing Value Source: Averaged Metar Reports

Daily Weather History Graph

Daily Weather History Graph

Search for Another Location

Airport or City:

Astronomy

Jul. 13, 2018 Rise Set
Actual Time 6:18 AM EEST 8:40 PM EEST
Civil Twilight 5:48 AM EEST 9:09 PM EEST
Nautical Twilight 5:12 AM EEST 9:45 PM EEST
Astronomical Twilight 4:33 AM EEST 10:24 PM EEST
Moon 6:29 AM EEST (7/13) 9:04 PM EEST (7/13)
Length of Visible Light 15h 20m
Length of Day
14h 21m
New Moon, 0% of the Moon is Illuminated
Jul 13
New Moon
Jul 19
First Quarter
Jul 27
Full
Aug 4
Last Quarter
Aug 11
New

Hourly Weather History & Observations

Time (EEST) Temp. Heat Index Dew Point Humidity Pressure Visibility Wind Dir Wind Speed Gust Speed Precip Events Conditions
12:00 AM 75 °F - 71 °F 84% 29.89 in 6 mi WNW 6.9 mph - -   Scattered Clouds
12:20 AM 75.2 °F - 71.6 °F 89% 29.89 in 6.2 mi NW 4.6 mph - N/A   Partly Cloudy
12:50 AM 75.2 °F - 71.6 °F 89% 29.89 in 6.2 mi NNW 6.9 mph - N/A   Partly Cloudy
1:20 AM 75.2 °F - 71.6 °F 89% 29.89 in 6.2 mi NNW 4.6 mph - N/A   Partly Cloudy
1:50 AM 75.2 °F - 71.6 °F 89% 29.89 in 6.2 mi NW 6.9 mph - N/A   Partly Cloudy
2:20 AM 75.2 °F - 71.6 °F 89% 29.89 in 6.2 mi WNW 6.9 mph - N/A   Partly Cloudy
2:50 AM 73.4 °F - 66.2 °F 78% 29.86 in 6.2 mi WNW 4.6 mph - N/A   Partly Cloudy
3:00 AM 73 °F - 66 °F 73% 29.86 in 6 mi WNW 4.6 mph - -   Scattered Clouds
3:20 AM 73.4 °F - 66.2 °F 78% 29.86 in 6.2 mi NW 4.6 mph - N/A   Partly Cloudy
3:50 AM 73.4 °F - 66.2 °F 78% 29.86 in 6.2 mi WNW 6.9 mph - N/A   Partly Cloudy
4:20 AM 73.4 °F - 66.2 °F 78% 29.86 in 6.2 mi WNW 4.6 mph - N/A   Partly Cloudy
4:50 AM 73.4 °F - 66.2 °F 78% 29.86 in 6.2 mi West 4.6 mph - N/A   Partly Cloudy
5:50 AM 73.4 °F - 62.6 °F 69% 29.86 in - West 4.6 mph - N/A   Clear
6:20 AM 73.4 °F - 62.6 °F 69% 29.86 in - Calm Calm - N/A   Clear
6:50 AM 73.4 °F - 62.6 °F 69% 29.86 in - Calm Calm - N/A   Clear
7:20 AM 77.0 °F - 62.6 °F 61% 29.86 in - Calm Calm - N/A   Clear
7:50 AM 78.8 °F - 64.4 °F 61% 29.86 in - Calm Calm - N/A   Clear
8:20 AM 80.6 °F 82.3 °F 64.4 °F 58% 29.86 in - NNW 6.9 mph - N/A   Clear
8:50 AM 84.2 °F 87.3 °F 68.0 °F 58% 29.86 in - North 6.9 mph - N/A   Clear
9:00 AM 85 °F - 67 °F 46% 29.86 in 6 mi North 6.9 mph - -  
9:20 AM 84.2 °F 87.3 °F 68.0 °F 58% 29.86 in - NNW 6.9 mph - N/A   Clear
9:50 AM 87.8 °F 92.6 °F 69.8 °F 55% 29.86 in - NNW 6.9 mph - N/A   Clear
10:20 AM 87.8 °F 92.6 °F 69.8 °F 55% 29.86 in - North 6.9 mph - N/A   Clear
10:50 AM 87.8 °F 92.6 °F 69.8 °F 55% 29.89 in - NNW 9.2 mph - N/A   Clear
11:20 AM 87.8 °F 92.6 °F 69.8 °F 55% 29.89 in - North 13.8 mph - N/A   Clear
11:50 AM 87.8 °F 90.4 °F 66.2 °F 49% 29.89 in 6.2 mi North 11.5 mph - N/A   Partly Cloudy
12:20 PM 87.8 °F 90.4 °F 66.2 °F 49% 29.89 in 6.2 mi NNW 11.5 mph - N/A   Partly Cloudy
12:50 PM 89.6 °F 92.2 °F 66.2 °F 46% 29.89 in 6.2 mi North 11.5 mph - N/A   Partly Cloudy
1:20 PM 89.6 °F 92.2 °F 66.2 °F 46% 29.89 in 6.2 mi North 11.5 mph - N/A   Partly Cloudy
1:50 PM 89.6 °F 93.4 °F 68.0 °F 49% 29.89 in 6.2 mi North 9.2 mph - N/A   Partly Cloudy
2:50 PM 91.4 °F 96.8 °F 69.8 °F 49% 29.89 in - NW 9.2 mph - N/A   Clear
3:00 PM 91 °F - 70 °F 41% 29.86 in 6 mi NW 9.2 mph - -  
3:20 PM 91.4 °F 96.8 °F 69.8 °F 49% 29.89 in - NNW 10.4 mph - N/A   Clear
3:50 PM 89.6 °F 96.2 °F 71.6 °F 55% 29.86 in - NW 9.2 mph - N/A   Clear
4:20 PM 89.6 °F 96.2 °F 71.6 °F 55% 29.86 in - NW 9.2 mph - N/A   Clear
4:50 PM 89.6 °F 94.7 °F 69.8 °F 52% 29.86 in - NNW 9.2 mph - N/A   Clear
5:20 PM 89.6 °F 94.7 °F 69.8 °F 52% 29.86 in - NNW 8.1 mph - N/A   Clear
5:50 PM 89.6 °F 96.2 °F 71.6 °F 55% 29.86 in - NW 8.1 mph - N/A   Clear
6:00 PM 89 °F - 71 °F 47% 29.84 in 6 mi NW 8.1 mph - -  
6:20 PM 89.6 °F 96.2 °F 71.6 °F 55% 29.86 in - North 6.9 mph - N/A   Clear
6:50 PM 87.8 °F 93.8 °F 71.6 °F 58% 29.86 in - NNW 5.8 mph - N/A   Clear
7:20 PM 87.8 °F 93.8 °F 71.6 °F 58% 29.86 in - WNW 4.6 mph - N/A   Clear
7:50 PM 86.0 °F 91.8 °F 71.6 °F 62% 29.83 in - NNW 5.8 mph - N/A   Clear
8:20 PM 86.0 °F 91.8 °F 71.6 °F 62% 29.83 in - WNW 9.2 mph - N/A   Clear
8:50 PM 80.6 °F 83.9 °F 69.8 °F 70% 29.86 in - WNW 8.1 mph - N/A   Clear
9:00 PM 81 °F - 70 °F 63% 29.83 in 6 mi WNW 8.1 mph - -  
9:20 PM 80.6 °F 83.9 °F 69.8 °F 70% 29.86 in - NW 6.9 mph - N/A   Clear
9:50 PM 78.8 °F - 71.6 °F 78% 29.86 in - WNW 6.9 mph - N/A   Clear
10:20 PM 78.8 °F - 71.6 °F 78% 29.86 in - WNW 6.9 mph - N/A   Clear
10:50 PM 78.8 °F - 71.6 °F 78% 29.86 in 6.2 mi WNW 4.6 mph - N/A   Partly Cloudy
11:20 PM 78.8 °F - 71.6 °F 78% 29.86 in 6.2 mi WNW 4.6 mph - N/A   Partly Cloudy
11:50 PM 77.0 °F - 71.6 °F 83% 29.86 in - NW 5.8 mph - N/A   Clear